Location: Be?chatów
(51.3665°N, 19.3745°E)
Time: 16:56:15
(UTC+00:00)

Cosmos 1238 Rocket - Pass Details

Date: 19 May 2025
Orbit: 356 x 776 km, 82.9° (Epoch: 20 June)

Event Time Altitude Azimuth Distance (km) Brightness Sun altitude
Exits shadow 21:23:51 12° 228° (SW) 1,537 4.9 -16.8°
Maximum altitude 21:26:38 28° 286° (WNW) 879 4.2 -16.9°
Drops below altitude 10° 21:29:33 10° 348° (NNW) 1,522 6.4 -17.1°
Sets 21:31:39 0° 1° (N) 2,335 7.5 -17.1°
